Content
SEND FEEDBACK

Daily
Averages
Monthly
Summary
United States of America

STATEN ISLAND, NEW YORK


Home > North America > United States > New York
Elevation: 46 meters     Latitude: 40 35N     Longitude: 074 09W

WEATHER
 
SELECT A DAY
Number of Records: 193,270;   Date Range: 1/1/95 - 11/25/14
 
SHARE

PRINT THIS DATA

[ ← Previous Day ]
WEATHER ALMANAC - 6 JANUARY, 2013
[ Next Day → ]
[ °F ]   °C
Weather ElementAverageHighLow
Temperature4 °C8.9 °C (2:51 pm)0.6 °C (4:51 am)
Dewpoint-2.1 °C0 °C (7:06 am)-5 °C (1:51 am)
Humidity67 %93 % (7:06 am)41 % (2:51 pm)
Barometer1018.6 hPa1023.4 hPa (1:51 am)1015.2 hPa (2:51 pm)
Wind Speed14.6 km/h24.1 km/h (2:51 pm)
Wind Gust31.5 km/h (1:51 pm)
Weather ElementAverage
Visibility14 km
Wind DirectionWSW (237.6 °)

Weather ElementTotal
Precipitation---
Heating Degree Days13.6 (Base 18.3)
Averaged from 29 records on 6 January, 2013
WEATHER CONDITIONS BREAKOUT
WIND DIRECTION BREAKOUT
WEATHER BY HOUR - 6 JANUARY, 2013
[ °F ]   °C
Local TimeTemperatureDewpointHumidityBarometerVisibilityWind DirectionWind SpeedGust SpeedPrecipitationEventsConditions
1:51 AM1.1 °C-5 °C64 %1023.4 hPa16.1 kmSW (230°)14.8 km/hOvercast
2:51 AM1.1 °C-5 °C64 %1022.7 hPa16.1 kmSSW (200°)7.4 km/hOvercast
3:51 AM1.1 °C-4.4 °C67 %1021.7 hPa16.1 kmSSW (200°)9.3 km/hOvercast
4:51 AM0.6 °C-2.2 °C82 %1020.7 hPa16.1 kmSSW (200°)13 km/hOvercast
5:42 AM1 °C-1 °C87 %1020.3 hPa9.7 kmSSW (210°)7.4 km/h0 mmOvercast
5:51 AM0.6 °C-1.1 °C89 %1020.3 hPa9.7 kmSSW (210°)9.3 km/h0 mmOvercast
6:51 AM1.1 °C-0.6 °C89 %1020.3 hPa9.7 kmSSW (210°)9.3 km/hOvercast
7:06 AM1 °C0 °C93 %1020.3 hPa9.7 kmSW (220°)14.8 km/hOvercast
7:51 AM1.7 °C0 °C89 %1020 hPa9.7 kmSW (230°)14.8 km/hOvercast
8:46 AM2 °C0 °C87 %1020 hPa9.7 kmWSW (240°)13 km/hOvercast
8:51 AM2.2 °C0 °C86 %1020 hPa9.7 kmSW (220°)13 km/hOvercast
9:06 AM2 °C0 °C87 %1019.6 hPa11.3 kmSW (230°)13 km/hMostly Cloudy
9:28 AM3 °C0 °C81 %1020 hPa11.3 kmSW (230°)18.5 km/hMostly Cloudy
9:51 AM2.8 °C-0.6 °C79 %1020 hPa12.9 kmSW (230°)16.7 km/hMostly Cloudy
10:09 AM3 °C-1 °C75 %1019.6 hPa14.5 kmWSW (250°)18.5 km/hMostly Cloudy
10:51 AM4.4 °C-0.6 °C70 %1018.6 hPa14.5 kmSW (220°)14.8 km/hScattered Clouds
11:51 AM6 °C-1 °C61 %1017.6 hPa16.1 kmWSW (240°)16.7 km/hScattered Clouds
12:51 PM7.8 °C-1.7 °C51 %1016.3 hPa16.1 kmWSW (250°)16.7 km/hScattered Clouds
1:51 PM8.3 °C-2.8 °C46 %1015.6 hPa16.1 kmWSW (240°)22.2 km/h31.5 km/hScattered Clouds
2:51 PM8.9 °C-3.9 °C41 %1015.2 hPa16.1 kmWSW (250°)24.1 km/h29.6 km/hScattered Clouds
3:51 PM8.3 °C-4.4 °C41 %1015.2 hPa16.1 kmWest (260°)18.5 km/hScattered Clouds
4:51 PM7.2 °C-3.3 °C48 %1015.6 hPa16.1 kmWest (260°)11.1 km/hScattered Clouds
5:51 PM6.7 °C-3.3 °C49 %1016.3 hPa16.1 kmWest (270°)13 km/hScattered Clouds
6:51 PM6.7 °C-3.9 °C47 %1016.6 hPa16.1 kmWSW (250°)16.7 km/hMostly Cloudy
7:51 PM6.1 °C-3.9 °C49 %1016.6 hPa16.1 kmWest (260°)16.7 km/hOvercast
8:51 PM6.1 °C-3.3 °C51 %1016.6 hPa16.1 kmWest (270°)16.7 km/hOvercast
9:51 PM5.6 °C-3.3 °C53 %1016.9 hPa16.1 kmWest (270°)16.7 km/hOvercast
10:51 PM5 °C-2.8 °C57 %1017.3 hPa16.1 kmWest (270°)11.1 km/hMostly Cloudy
11:51 PM4.4 °C-2.8 °C60 %1017.6 hPa16.1 kmWest (270°)14.8 km/hOvercast
Hourly data recorded from KEWR, located 0 kilometers away from Staten Island, New York







STORIES FROM OUR PARTNERS